This is the latest recevied weather packets stored in our database for station/object KF6YUA. If no packets are shown the sender has not sent any weather packets the latest 10 day(s).
| Time | Temp. | Humidity | Pressure | Rain* | Wind** | Luminosity | Snow |
|---|---|---|---|---|---|---|---|
| 1777664453 | 18.89° C | 78% | 1016.9 hPa | 0 mm | - | 438 W/m² | - |
| 1777664151 | 18.89° C | 77% | 1016.8 hPa | 0 mm | - | 511 W/m² | - |
| 1777663850 | 17.78° C | 78% | 1017.1 hPa | 0 mm | - | 598 W/m² | - |
| 1777663545 | 17.78° C | 80% | 1017.1 hPa | 0 mm | - | 590 W/m² | - |
| 1777663244 | 17.22° C | 80% | 1017.1 hPa | 0 mm | - | 617 W/m² | - |
| 1777662940 | 17.22° C | 81% | 1016.9 hPa | 0 mm | - | 711 W/m² | - |
| 1777662638 | 17.22° C | 79% | 1017.2 hPa | 0 mm | - | 609 W/m² | - |
| 1777662333 | 17.22° C | 81% | 1017.2 hPa | 0 mm | - | 480 W/m² | - |
| 1777662029 | 17.22° C | 81% | 1017.1 hPa | 0 mm | - | 420 W/m² | - |
| 1777661726 | 16.67° C | 82% | 1017.5 hPa | 0 mm | - | 414 W/m² | - |
| 1777661422 | 16.67° C | 82% | 1017.3 hPa | 0 mm | - | 344 W/m² | - |
| 1777661118 | 16.11° C | 86% | 1017.3 hPa | 0 mm | - | 455 W/m² | - |
| 1777660812 | 16.11° C | 85% | 1017.5 hPa | 0 mm | - | 475 W/m² | - |
| 1777660510 | 16.11° C | 85% | 1017.4 hPa | 0 mm | - | 552 W/m² | - |
| 1777660206 | 15.56° C | 85% | 1017.5 hPa | 0 mm | - | 478 W/m² | - |
| 1777659903 | 15.56° C | 87% | 1017.5 hPa | 0 mm | - | 423 W/m² | - |
| 1777659599 | 15° C | 87% | 1017.4 hPa | 0 mm | - | 458 W/m² | - |
| 1777659297 | 14.44° C | 88% | 1017.6 hPa | 0 mm | - | 349 W/m² | - |
| 1777658994 | 14.44° C | 88% | 1017.4 hPa | 0 mm | - | 311 W/m² | - |
| 1777658691 | 14.44° C | 89% | 1017.6 hPa | 0 mm | - | 309 W/m² | - |
| 1777658387 | 13.89° C | 91% | 1017.7 hPa | 0 mm | - | 242 W/m² | - |
| 1777658084 | 13.89° C | 91% | 1017.7 hPa | 0 mm | - | 202 W/m² | - |
| 1777657780 | 13.33° C | 92% | 1017.5 hPa | 0 mm | - | 229 W/m² | - |
| 1777657478 | 13.33° C | 94% | 1017.8 hPa | 0 mm | - | 218 W/m² | - |
| 1777657176 | 12.78° C | 93% | 1017.6 hPa | 0 mm | - | 184 W/m² | - |
* Rain latest hour (hover to see other rain measurements)
** Current wind speed in m/s (hover to see current wind gust speed)